Location: Albany
(35.0170°S, 117.8920°E)
Time: 21:24:26
(UTC+08:00)

A-11 Canister half - Pass Details

Date: 25 January 2021
Orbit: 1525 x 1684 km, 47.3° (Epoch: 03 March)

Event Time Altitude Azimuth Distance (km) Brightness Sun altitude
Rises 09:39:44 0° 237° (WSW) 4,842 11.3 51.0°
Reaches altitude 10° 09:42:58 10° 241° (WSW) 3,830 10.8 51.7°
Maximum altitude 09:52:18 55° 315° (NW) 1,837 9.9 53.5°
Drops below altitude 10° 10:01:19 10° 29° (NNE) 3,701 11.6 55.3°
Sets 10:04:24 0° 33° (NNE) 4,669 11.9 55.9°
